User: anonymous   Login
Location: Unspecified
(0.0000°N, 0.0000°E)
Time: 23:04:37
(UTC+00:00)
Language:

AO-73 - Orbit

View from above orbital plane
View from above orbital plane
View from above satellite
View from above satellite

Ground track
Ground track

The orbit data is extracted from the following two-line orbital elements,

1 39444U 13066AE  21125.23470758  .00000349  00000-0  48951-4 0  9994
2 39444  97.5819 114.1624 0056203 294.1586  65.3758 14.82396913401033
Epoch (UTC): 05 May 2021 05:37:58
Eccentricity: 0.0056203
inclination: 97.5819°
perigee height: 582 km
apogee height: 661 km
right ascension of ascending node: 114.1624°
argument of perigee: 294.1586°
revolutions per day: 14.82396913
mean anomaly at epoch: 65.3758°
orbit number at epoch: 40103

The dashed part of the orbit path shows where the satellite is in the earth's shadow,  

DLR